This demonstration page uses our WeatherBlox Daily Observations layout. Learn more.

Left ArrowRight Arrow

39.92423, -83.80882

Hourly Observations for November 7, 2018

Temp ( °F °C ) Dew Point ( °F °C ) Humidity (%) Winds ( mph kmh ) Pressure ( in mb ) Visibility ( mi km ) Precip ( " mm )
12:56 am 00:56 Mostly Clear 46 7.8 41 5 83 83 WSW 13 20 30.03 1017 10 16.0934 N/A
1:56 am 01:56 Mostly Cloudy 45 7.2 41 5 86 86 WNW 13 20 30.06 1018 10 16.0934 N/A
2:45 am 02:45 Mostly Cloudy 43 6 39 4 87 87 WNW 10 17 30.09 1019 10 16.0934 0.01 0.254
2:56 am 02:56 Cloudy 42 5.6 40 4.4 92 92 W 10 17 30.08 1019 10 16.0934 0.01 0.254
3:56 am 03:56 Partly Cloudy 42 5.6 37 2.8 82 82 W 12 19 30.09 1019 10 16.0934 N/A
4:56 am 04:56 Clear 41 5 35 1.7 79 79 W 13 20 30.09 1019 10 16.0934 N/A
5:56 am 05:56 Clear 39 3.9 34 1.1 82 82 W 9 15 30.1 1019 10 16.0934 N/A
6:56 am 06:56 Clear 38 3.3 34 1.1 86 86 W 9 15 30.12 1020 10 16.0934 N/A
7:56 am 07:56 Sunny 38 3.3 34 1.1 86 86 W 8 13 30.14 1021 10 16.0934 N/A
8:56 am 08:56 Sunny 39 3.9 35 1.7 86 86 SW 9 15 30.16 1021 10 16.0934 N/A
9:56 am 09:56 Sunny 43 6.1 36 2.2 76 76 WSW 14 22 30.14 1021 10 16.0934 N/A
10:56 am 10:56 Sunny 43 6.1 35 1.7 74 74 W 15 24 30.16 1021 10 16.0934 N/A
11:56 am 11:56 Sunny 47 8.3 34 1.1 61 61 W 14 22 30.15 1021 10 16.0934 N/A
12:56 pm 12:56 Sunny 48 8.9 34 1.1 58 58 WSW 20 31 30.14 1021 10 16.0934 N/A
1:56 pm 13:56 Sunny 50 10 33 0.6 52 52 WSW 17 28 30.13 1020 10 16.0934 N/A
2:56 pm 14:56 Sunny 50 10 33 0.6 52 52 W 16 26 30.13 1020 10 16.0934 N/A
3:56 pm 15:56 Sunny 50 10 34 1.1 54 54 W 17 28 30.14 1021 10 16.0934 N/A
4:56 pm 16:56 Sunny 48 8.9 33 0.6 56 56 WSW 10 17 30.16 1021 10 16.0934 N/A
5:56 pm 17:56 Clear 41 5 33 0.6 73 73 W 7 11 30.19 1022 10 16.0934 N/A
6:56 pm 18:56 Clear 41 5 31 -0.6 67 67 NW 6 9 30.2 1023 10 16.0934 N/A
7:56 pm 19:56 Clear 39 3.9 32 undefined 76 76 NW 7 11 30.22 1023 10 16.0934 N/A
8:56 pm 20:56 Clear 36 2.2 32 undefined 86 86 NW 7 11 30.24 1024 10 16.0934 N/A
9:56 pm 21:56 Clear 34 1.1 32 undefined 92 92 NNW 8 13 30.26 1025 10 16.0934 N/A
11:56 pm 23:56 Clear 31 -0.6 29 -1.7 92 92 N 5 7 30.27 1025 10 16.0934 N/A

Powered by AerisWeather